period_start,C,m1,H,J0,J1,J2,J3,J4,J5,JA,JB,JC,JD,JJ,JK,JN,#
2014-04-26 00:00:53,0.03,2.28,0.00,16.57,24.22,25.91,6.08,29.75,1001.87,2049.99,2587.03,2753.99,2942.01,349.77,326.14,27.82,0000 0000 0000 0000 000000
2014-04-26 00:01:53,0.01,2.28,0.00,16.58,24.22,25.92,5.97,30.08,1001.87,2049.99,2587.01,2753.99,2942.00,348.87,325.48,27.82,0000 0000 0000 0000 000000
2014-04-26 00:02:53,0.00,2.28,0.00,16.55,24.22,25.90,6.03,30.00,1001.93,2050.00,2587.00,2753.98,2941.99,350.39,326.65,27.83,0000 0000 0000 0000 000000
2014-04-26 00:03:54,0.02,2.28,0.00,16.57,24.22,25.91,6.08,29.75,1001.95,2050.00,2586.96,2753.94,2941.97,350.18,326.37,27.84,0000 0000 0000 0000 000000
2014-04-26 00:04:54,0.02,2.28,0.00,16.59,24.22,25.88,6.21,29.83,1001.96,2050.00,2586.59,2753.70,2941.92,351.39,327.66,27.84,0000 0000 0000 0000 000000
2014-04-26 00:05:54,0.18,2.28,0.00,16.62,24.21,25.91,6.23,29.71,1001.96,2050.00,2586.25,2753.37,2941.74,350.75,327.02,27.85,0000 0000 0000 0000 000000
2014-04-26 00:06:54,0.18,2.28,0.00,16.65,24.21,25.89,5.87,29.79,1001.97,2050.00,2586.09,2753.18,2941.44,349.62,325.75,27.85,0000 0000 0000 0000 000000
2014-04-26 00:07:55,0.13,2.28,0.00,16.68,24.20,25.89,6.08,29.88,1001.97,2050.00,2586.03,2753.08,2941.20,350.01,326.31,27.86,0000 0000 0000 0000 000000
2014-04-26 00:08:55,0.06,2.28,0.00,16.67,24.20,25.93,6.08,29.83,1001.97,2050.01,2586.01,2753.06,2941.10,349.46,325.77,27.87,0000 0000 0000 0000 000000
2014-04-26 00:09:55,0.03,2.28,0.00,16.68,24.20,25.98,6.13,29.83,1001.99,2050.00,2586.00,2753.03,2941.04,350.44,325.94,27.87,0000 0000 0000 0000 000000
2014-04-26 00:10:56,0.01,2.28,0.00,16.68,24.20,25.99,6.19,29.83,1002.13,2050.00,2585.99,2753.00,2941.01,350.52,326.81,27.88,0000 0000 0000 0000 000000
2014-04-26 00:11:56,0.00,2.28,0.00,16.69,24.20,26.01,6.22,29.96,1002.31,2050.00,2585.87,2753.00,2941.00,350.70,326.79,27.88,0000 0000 0000 0000 000000
2014-04-26 00:12:56,0.02,2.28,0.00,16.70,24.20,26.03,6.27,30.00,1002.43,2050.00,2585.56,2752.99,2941.00,350.68,326.52,27.89,0000 0000 0000 0000 000000
2014-04-26 00:13:57,0.06,2.29,0.00,16.71,24.20,26.04,6.06,29.75,1002.41,2050.01,2585.28,2752.99,2941.00,349.63,326.03,27.89,0000 0000 0000 0000 000000
2014-04-26 00:14:57,0.06,2.29,0.00,16.72,24.20,26.03,6.16,29.54,1002.44,2050.02,2585.14,2752.97,2940.99,351.01,327.32,27.90,0000 0000 0000 0000 000000
2014-04-26 00:15:57,0.03,2.29,0.00,16.71,24.20,26.06,6.26,29.67,1002.45,2050.00,2585.05,2752.91,2940.91,350.57,326.92,27.91,0000 0000 0000 0000 000000
2014-04-26 00:16:57,0.02,2.29,0.00,16.73,24.20,26.05,5.94,29.83,1002.43,2050.00,2585.02,2752.82,2940.73,349.56,325.94,27.91,0000 0000 0000 0000 000000
2014-04-26 00:17:58,0.06,2.29,0.00,16.75,24.20,26.10,6.18,29.58,1002.45,2050.01,2585.00,2752.64,2940.54,350.75,327.04,27.92,0000 0000 0000 0000 000000
2014-04-26 00:18:58,0.10,2.29,0.00,16.73,24.20,26.05,6.17,29.58,1002.46,2050.00,2584.99,2752.40,2940.28,351.05,327.34,27.92,0000 0000 0000 0000 000000
2014-04-26 00:19:58,0.10,2.29,0.00,16.73,24.20,26.11,6.13,29.75,1002.46,2050.00,2584.99,2752.19,2940.12,350.08,326.33,27.93,0000 0000 0000 0000 000000
2014-04-26 00:20:58,0.08,2.29,0.00,16.73,24.20,26.07,6.26,29.58,1002.46,2050.00,2584.82,2752.09,2940.06,350.57,326.81,27.94,0000 0000 0000 0000 000000
2014-04-26 00:21:59,0.08,2.29,0.00,16.72,24.20,26.02,5.95,29.46,1002.46,2050.00,2584.42,2752.03,2940.03,349.72,326.12,27.94,0000 0000 0000 0000 000000
2014-04-26 00:22:59,0.08,2.29,0.00,16.71,24.20,26.04,6.03,29.83,1002.44,2050.00,2584.19,2752.01,2940.01,349.14,325.58,27.95,0000 0000 0000 0000 000000
2014-04-26 00:23:59,0.05,2.29,0.00,16.72,24.20,26.02,6.03,29.71,1002.46,2050.00,2584.07,2752.00,2940.00,349.19,325.44,27.95,0000 0000 0000 0000 000000
2014-04-26 00:25:00,0.02,2.29,0.00,16.69,24.20,25.99,6.19,30.04,1002.46,2050.01,2584.03,2752.00,2940.00,350.03,326.43,27.96,0000 0000 0000 0000 000000
2014-04-26 00:26:00,0.01,2.29,0.00,16.69,24.20,25.99,6.23,29.96,1002.45,2050.00,2584.01,2752.00,2939.94,351.10,327.73,27.96,0000 0000 0000 0000 000000
2014-04-26 00:27:00,0.01,2.29,0.00,16.69,24.20,25.99,6.21,30.04,1002.45,2050.01,2584.00,2751.99,2939.75,350.52,326.89,27.97,0000 0000 0000 0000 000000
2014-04-26 00:28:00,0.04,2.29,0.00,16.69,24.20,25.99,6.24,29.63,1002.46,2050.00,2583.95,2751.94,2939.47,350.90,327.24,27.98,0000 0000 0000 0000 000000
2014-04-26 00:29:00,0.07,2.29,0.00,16.70,24.20,26.01,6.22,29.71,1002.46,2050.00,2583.76,2751.88,2939.24,349.82,326.08,27.98,0000 0000 0000 0000 000000
2014-04-26 00:30:01,0.07,2.29,0.00,16.72,24.20,26.01,5.96,29.54,1002.46,2050.03,2583.41,2751.79,2939.16,349.32,325.74,27.99,0000 0000 0000 0000 000000
2014-04-26 00:31:01,0.15,2.29,0.00,16.69,24.20,25.95,6.12,29.83,1002.46,2050.02,2583.17,2751.53,2939.08,350.71,327.07,27.99,0000 0000 0000 0000 000000
2014-04-26 00:32:01,0.12,2.29,0.00,16.69,24.20,25.97,6.03,29.63,1002.46,2050.00,2583.06,2751.25,2939.03,349.16,325.78,28.00,0000 0000 0000 0000 000000
2014-04-26 00:33:01,0.09,2.29,0.00,16.70,24.20,25.97,5.88,29.79,1002.46,2050.00,2583.00,2751.10,2939.01,349.91,326.31,28.01,0000 0000 0000 0000 000000
2014-04-26 00:34:02,0.05,2.29,0.00,16.69,24.20,25.93,6.23,29.71,1002.46,2050.00,2582.99,2751.03,2939.00,350.26,326.65,28.01,0000 0000 0000 0000 000000
2014-04-26 00:35:02,0.01,2.29,0.00,16.67,24.20,25.94,6.20,29.63,1002.46,2050.01,2582.97,2751.01,2939.00,349.86,326.29,28.02,0000 0000 0000 0000 000000
2014-04-26 00:36:02,0.01,2.29,0.00,16.67,24.20,25.97,6.29,29.88,1002.46,2050.00,2582.85,2751.00,2938.98,351.18,327.54,28.02,0000 0000 0000 0000 000000
2014-04-26 00:37:02,0.02,2.29,0.00,16.68,24.20,25.97,6.13,29.79,1002.46,2050.00,2582.63,2751.00,2938.94,349.87,326.29,28.03,0000 0000 0000 0000 000000
2014-04-26 00:38:03,0.06,2.29,0.00,16.70,24.20,26.04,6.19,29.92,1002.46,2050.01,2582.32,2751.00,2938.75,350.16,326.55,28.04,0000 0000 0000 0000 000000
2014-04-26 00:39:03,0.10,2.29,0.00,16.71,24.20,26.05,6.23,29.67,1002.47,2050.01,2582.14,2751.00,2938.47,350.37,326.74,28.04,0000 0000 0000 0000 000000
2014-04-26 00:40:03,0.07,2.29,0.00,16.68,24.20,25.96,6.03,29.58,1002.48,2050.00,2582.05,2750.98,2938.21,350.31,326.71,28.05,0000 0000 0000 0000 000000
2014-04-26 00:41:03,0.05,2.30,0.00,16.71,24.20,25.93,6.01,29.63,1002.46,2050.00,2582.01,2750.99,2938.08,349.54,326.33,28.05,0000 0000 0000 0000 000000
2014-04-26 00:42:04,0.02,2.30,0.00,16.71,24.20,25.95,6.05,29.63,1002.46,2050.02,2582.00,2750.97,2938.03,350.06,326.44,28.06,0000 0000 0000 0000 000000
2014-04-26 00:43:04,0.03,2.30,0.00,16.72,24.20,25.99,6.09,29.58,1002.51,2050.02,2582.00,2750.93,2938.01,349.79,325.82,28.06,0000 0000 0000 0000 000000
2014-04-26 00:44:04,0.01,2.30,0.00,16.70,24.20,25.94,6.32,29.75,1002.52,2050.02,2581.93,2750.76,2938.00,350.23,326.63,28.07,0000 0000 0000 0000 000000
2014-04-26 00:45:04,0.06,2.30,0.00,16.70,24.20,25.94,6.24,29.63,1002.51,2050.05,2581.74,2750.60,2938.00,349.87,326.00,28.08,0000 0000 0000 0000 000000
2014-04-26 00:46:05,0.12,2.30,0.00,16.69,24.20,25.93,6.16,29.88,1002.52,2050.05,2581.36,2750.30,2938.00,349.56,326.02,28.08,0000 0000 0000 0000 000000
2014-04-26 00:47:05,0.17,2.30,0.00,16.67,24.20,25.93,5.94,29.50,1002.51,2050.03,2581.18,2750.14,2937.99,349.30,325.98,28.09,0000 0000 0000 0000 000000
2014-04-26 00:48:05,0.04,2.30,0.00,16.67,24.20,25.96,5.92,29.67,1002.51,2050.04,2581.08,2750.08,2937.98,349.26,325.85,28.09,0000 0000 0000 0000 000000
2014-04-26 00:49:05,0.04,2.30,0.00,16.68,24.20,25.94,6.05,29.75,1002.50,2050.02,2581.04,2750.04,2937.91,350.02,326.45,28.10,0000 0000 0000 0000 000000
2014-04-26 00:50:05,0.01,2.30,0.00,16.70,24.20,25.95,6.15,29.83,1002.49,2050.01,2581.01,2750.01,2937.68,349.35,325.48,28.11,0000 0000 0000 0000 000000
2014-04-26 00:51:06,0.04,2.30,0.00,16.67,24.20,25.91,6.11,29.79,1002.52,2050.02,2580.99,2750.00,2937.31,349.25,325.99,28.11,0000 0000 0000 0000 000000
2014-04-26 00:52:06,0.06,2.30,0.00,16.68,24.20,25.90,6.17,29.63,1002.59,2050.01,2580.98,2750.00,2937.16,350.42,327.27,28.12,0000 0000 0000 0000 000000
2014-04-26 00:53:06,0.02,2.30,0.00,16.69,24.20,25.94,6.12,29.67,1002.53,2050.01,2580.80,2749.99,2937.07,350.32,326.62,28.12,0000 0000 0000 0000 000000
2014-04-26 00:54:06,0.05,2.30,0.00,16.71,24.20,25.97,6.09,29.75,1002.54,2050.01,2580.39,2749.91,2937.02,350.49,326.60,28.13,0000 0000 0000 0000 000000
2014-04-26 00:55:06,0.13,2.30,0.00,16.71,24.20,26.00,6.15,29.67,1002.61,2050.01,2580.16,2749.86,2937.00,350.86,326.36,28.13,0000 0000 0000 0000 000000
2014-04-26 00:56:07,0.04,2.30,0.00,16.73,24.20,26.08,6.23,29.58,1002.67,2050.02,2580.07,2749.61,2936.99,350.51,326.90,28.14,0000 0000 0000 0000 000000
2014-04-26 00:57:07,0.12,2.30,0.00,16.72,24.20,26.05,6.28,29.75,1002.70,2050.02,2580.02,2749.30,2936.98,349.97,326.43,28.15,0000 0000 0000 0000 000000
2014-04-26 00:58:07,0.08,2.30,0.00,16.69,24.20,26.03,6.16,29.75,1002.72,2050.01,2579.97,2749.13,2936.81,349.92,326.42,28.15,0000 0000 0000 0000 000000
2014-04-26 00:59:07,0.08,2.30,0.00,16.72,24.20,25.95,6.16,29.54,1002.77,2050.00,2579.91,2749.05,2936.49,350.13,326.61,28.16,0000 0000 0000 0000 000000
2014-04-26 01:00:08,0.06,2.30,0.00,16.71,24.20,25.92,6.27,29.54,1002.79,2050.00,2579.83,2749.01,2936.28,350.63,327.08,28.16,0000 0000 0000 0000 000000
2014-04-26 01:01:08,0.05,2.30,0.00,16.69,24.20,25.85,5.98,29.83,1002.82,2050.00,2579.45,2749.00,2936.13,349.45,326.01,28.17,0000 0000 0000 0000 000000
2014-04-26 01:02:08,0.12,2.30,0.00,16.69,24.20,25.86,6.23,29.58,1002.84,2050.01,2579.19,2749.00,2936.05,351.01,327.47,28.18,0000 0000 0000 0000 000000
2014-04-26 01:03:08,0.06,2.30,0.00,16.70,24.20,25.86,6.14,29.75,1002.85,2050.00,2579.08,2749.00,2936.01,349.48,326.42,28.18,0000 0000 0000 0000 000000
2014-04-26 01:04:08,0.01,2.30,0.00,16.69,24.20,25.92,6.07,29.83,1002.91,2050.00,2579.03,2748.99,2936.00,350.69,327.20,28.19,0000 0000 0000 0000 000000
2014-04-26 01:05:09,0.01,2.30,0.00,16.68,24.20,25.90,6.03,29.88,1002.91,2050.02,2579.00,2748.96,2936.00,349.60,326.19,28.19,0000 0000 0000 0000 000000
2014-04-26 01:06:09,0.02,2.30,0.00,16.69,24.20,25.88,6.10,29.92,1002.90,2050.01,2578.94,2748.86,2936.00,350.10,326.70,28.20,0000 0000 0000 0000 000000
2014-04-26 01:07:09,0.02,2.30,0.00,16.72,24.20,25.89,6.10,29.67,1002.93,2050.02,2578.61,2748.46,2935.93,350.29,326.81,28.20,0000 0000 0000 0000 000000
2014-04-26 01:08:09,0.22,2.31,0.00,16.75,24.20,25.86,6.17,29.83,1002.94,2050.02,2578.33,2748.20,2935.94,349.86,326.51,28.21,0000 0000 0000 0000 000000
2014-04-26 01:09:10,0.10,2.31,0.00,16.73,24.20,25.88,6.03,29.71,1002.94,2050.03,2578.17,2748.09,2935.68,349.38,325.94,28.22,0000 0000 0000 0000 000000
2014-04-26 01:10:10,0.12,2.31,0.00,16.69,24.20,25.90,6.11,29.71,1002.94,2050.01,2578.06,2748.03,2935.31,350.19,326.74,28.22,0000 0000 0000 0000 000000
2014-04-26 01:11:10,0.09,2.31,0.00,16.69,24.20,25.90,6.09,29.83,1002.94,2050.00,2578.01,2748.01,2935.16,350.14,326.65,28.23,0000 0000 0000 0000 000000
2014-04-26 01:12:10,0.01,2.31,0.00,16.73,24.20,25.89,6.08,29.71,1002.94,2050.01,2577.94,2748.00,2935.07,350.49,326.76,28.23,0000 0000 0000 0000 000000
2014-04-26 01:13:11,0.05,2.31,0.00,16.74,24.20,25.91,5.97,29.96,1002.94,2050.01,2577.74,2747.99,2935.02,350.51,326.98,28.24,0000 0000 0000 0000 000000
2014-04-26 01:14:11,0.04,2.31,0.00,16.74,24.20,25.93,6.24,29.83,1002.94,2050.02,2577.39,2747.97,2935.00,350.22,326.72,28.25,0000 0000 0000 0000 000000
2014-04-26 01:15:11,0.07,2.31,0.00,16.73,24.20,25.91,6.01,29.58,1002.94,2050.03,2577.19,2747.96,2935.00,349.46,325.95,28.25,0000 0000 0000 0000 000000
2014-04-26 01:16:11,0.05,2.31,0.00,16.75,24.20,25.83,6.04,29.79,1002.94,2050.02,2577.07,2747.78,2934.93,350.70,327.21,28.26,0000 0000 0000 0000 000000
2014-04-26 01:17:11,0.09,2.31,0.00,16.74,24.20,25.85,6.10,29.79,1002.94,2050.02,2577.01,2747.34,2934.70,349.66,325.65,28.26,0000 0000 0000 0000 000000
2014-04-26 01:18:12,0.17,2.31,0.00,16.75,24.20,25.82,6.03,29.63,1002.94,2050.01,2577.00,2747.14,2934.39,349.86,326.36,28.27,0000 0000 0000 0000 000000
2014-04-26 01:19:12,0.10,2.31,0.00,16.77,24.20,25.85,6.20,29.75,1002.94,2050.01,2576.98,2747.06,2934.18,350.61,327.04,28.28,0000 0000 0000 0000 000000
2014-04-26 01:20:12,0.05,2.31,0.00,16.76,24.20,25.81,6.13,29.58,1002.94,2050.02,2576.95,2747.04,2934.10,350.01,326.50,28.28,0000 0000 0000 0000 000000
2014-04-26 01:21:12,0.04,2.31,0.00,16.75,24.21,25.90,6.10,29.71,1002.94,2050.03,2576.91,2747.02,2934.07,349.71,326.23,28.29,0000 0000 0000 0000 000000
2014-04-26 01:22:13,0.02,2.31,0.00,16.72,24.21,25.85,6.16,29.83,1002.94,2050.02,2576.65,2747.00,2934.02,349.91,326.44,28.29,0000 0000 0000 0000 000000
2014-04-26 01:23:13,0.06,2.31,0.00,16.73,24.21,25.86,6.26,29.96,1002.94,2050.01,2576.29,2747.00,2934.00,350.31,326.82,28.30,0000 0000 0000 0000 000000
2014-04-26 01:24:13,0.05,2.31,0.00,16.72,24.21,25.87,6.03,29.83,1002.94,2050.01,2576.11,2747.00,2934.00,349.88,326.51,28.30,0000 0000 0000 0000 000000
2014-04-26 01:25:13,0.03,2.31,0.00,16.70,24.21,25.90,6.13,29.96,1002.94,2050.01,2576.04,2747.00,2933.99,349.87,325.63,28.31,0000 0000 0000 0000 000000
2014-04-26 01:26:14,0.02,2.31,0.00,16.71,24.21,25.93,6.00,30.04,1002.94,2050.00,2576.01,2746.98,2933.97,349.49,326.29,28.32,0000 0000 0000 0000 000000
2014-04-26 01:27:14,0.00,2.31,0.00,16.74,24.22,25.93,6.25,29.83,1002.94,2050.00,2576.00,2746.98,2933.91,351.13,327.62,28.32,0000 0000 0000 0000 000000
2014-04-26 01:28:14,0.02,2.31,0.00,16.76,24.22,25.90,6.25,29.75,1002.94,2050.00,2575.99,2746.77,2933.85,350.68,327.13,28.33,0000 0000 0000 0000 000000
2014-04-26 01:29:14,0.07,2.31,0.00,16.77,24.22,25.92,6.17,29.79,1002.94,2050.00,2575.98,2746.61,2933.64,350.22,326.51,28.33,0000 0000 0000 0000 000000
2014-04-26 01:30:14,0.10,2.31,0.00,16.75,24.22,25.88,6.17,29.71,1002.94,2050.00,2575.71,2746.34,2933.29,349.48,326.00,28.34,0000 0000 0000 0000 000000
2014-04-26 01:31:15,0.17,2.32,0.00,16.75,24.22,25.94,6.08,29.54,1002.94,2050.00,2575.31,2746.17,2933.11,350.14,326.19,28.35,0000 0000 0000 0000 000000
2014-04-26 01:32:15,0.14,2.32,0.00,16.78,24.22,25.95,6.10,29.88,1002.94,2050.02,2575.11,2746.10,2933.05,349.40,325.90,28.35,0000 0000 0000 0000 000000
2014-04-26 01:33:15,0.07,2.32,0.00,16.79,24.22,25.94,6.04,29.71,1002.94,2050.01,2575.04,2746.04,2933.02,350.15,326.59,28.36,0000 0000 0000 0000 000000
2014-04-26 01:34:16,0.02,2.32,0.00,16.78,24.22,25.93,6.23,29.83,1002.94,2050.00,2575.01,2746.01,2933.00,350.81,326.87,28.36,0000 0000 0000 0000 000000
2014-04-26 01:35:16,0.00,2.32,0.00,16.78,24.22,25.95,6.05,29.71,1002.95,2050.00,2574.98,2746.00,2933.00,350.09,326.66,28.37,0000 0000 0000 0000 000000
2014-04-26 01:36:16,0.00,2.32,0.00,16.78,24.22,25.97,5.94,29.75,1002.96,2050.00,2574.99,2746.00,2933.00,350.14,326.85,28.37,0000 0000 0000 0000 000000
2014-04-26 01:37:16,0.00,2.32,0.00,16.80,24.22,25.97,6.27,29.79,1002.95,2050.00,2574.96,2745.99,2932.99,350.44,327.02,28.38,0000 0000 0000 0000 000000
2014-04-26 01:38:16,0.02,2.32,0.00,16.79,24.22,25.98,6.19,29.75,1002.96,2050.00,2574.94,2745.99,2932.98,350.50,326.99,28.39,0000 0000 0000 0000 000000
2014-04-26 01:39:16,0.00,2.32,0.00,16.79,24.22,26.06,6.23,29.63,1002.99,2050.00,2574.80,2745.99,2932.91,349.46,326.19,28.39,0000 0000 0000 0000 000000
2014-04-26 01:40:17,0.04,2.32,0.00,16.77,24.22,26.02,6.03,29.58,1003.01,2050.00,2574.37,2745.98,2932.69,349.64,326.16,28.40,0000 0000 0000 0000 000000
2014-04-26 01:41:17,0.13,2.32,0.00,16.74,24.22,26.01,6.07,29.63,1003.01,2050.00,2574.14,2745.88,2932.44,349.58,326.13,28.40,0000 0000 0000 0000 000000
2014-04-26 01:42:17,0.11,2.32,0.00,16.74,24.22,25.95,6.28,29.83,1003.02,2050.00,2574.07,2745.75,2932.22,350.96,327.43,28.41,0000 0000 0000 0000 000000
2014-04-26 01:43:17,0.08,2.32,0.00,16.77,24.22,25.98,6.23,29.67,1003.10,2050.00,2574.03,2745.53,2932.10,350.15,326.67,28.42,0000 0000 0000 0000 000000
2014-04-26 01:44:17,0.10,2.32,0.00,16.77,24.22,25.96,6.15,29.88,1003.16,2050.00,2574.01,2745.26,2932.04,349.49,326.07,28.42,0000 0000 0000 0000 000000
2014-04-26 01:45:18,0.08,2.32,0.00,16.77,24.22,25.96,6.26,29.67,1003.17,2050.00,2574.00,2745.11,2932.02,350.35,326.89,28.43,0000 0000 0000 0000 000000
2014-04-26 01:46:18,0.04,2.32,0.00,16.77,24.22,25.99,6.11,29.79,1003.14,2050.00,2573.99,2745.05,2932.00,350.08,326.62,28.43,0000 0000 0000 0000 000000
2014-04-26 01:47:18,0.02,2.32,0.00,16.76,24.22,25.96,6.18,29.71,1003.12,2050.00,2573.96,2745.02,2932.00,350.97,327.42,28.44,0000 0000 0000 0000 000000
2014-04-26 01:48:18,0.01,2.32,0.00,16.74,24.22,25.99,6.06,29.79,1003.17,2050.00,2573.87,2745.00,2931.99,348.44,325.07,28.44,0000 0000 0000 0000 000000
2014-04-26 01:49:19,0.02,2.32,0.00,16.75,24.22,25.95,6.16,29.83,1003.24,2050.00,2573.46,2745.00,2931.98,350.64,327.19,28.45,0000 0000 0000 0000 000000
2014-04-26 01:50:19,0.08,2.32,0.00,16.76,24.23,25.93,6.11,29.71,1003.20,2050.00,2573.19,2745.00,2931.92,350.02,326.58,28.46,0000 0000 0000 0000 000000
2014-04-26 01:51:19,0.05,2.32,0.00,16.76,24.23,25.95,6.10,29.79,1003.29,2050.00,2573.07,2745.00,2931.85,349.84,326.45,28.46,0000 0000 0000 0000 000000
2014-04-26 01:52:19,0.04,2.32,0.00,16.76,24.24,25.96,5.97,29.96,1003.30,2050.00,2573.02,2744.97,2931.51,349.32,325.96,28.47,0000 0000 0000 0000 000000
2014-04-26 01:53:20,0.08,2.32,0.00,16.78,24.24,25.96,5.97,29.67,1003.30,2050.00,2572.97,2744.63,2931.20,349.30,325.92,28.47,0000 0000 0000 0000 000000
2014-04-26 01:54:20,0.16,2.32,0.00,16.77,24.24,25.96,6.02,29.96,1003.39,2050.00,2572.54,2744.26,2931.07,349.26,325.94,28.48,0000 0000 0000 0000 000000
2014-04-26 01:55:20,0.20,2.32,0.00,16.78,24.24,25.99,6.06,29.92,1003.39,2050.00,2572.22,2744.11,2931.02,350.36,326.94,28.49,0000 0000 0000 0000 000000
2014-04-26 01:56:20,0.11,2.33,0.00,16.82,24.24,25.97,6.01,29.83,1003.42,2050.00,2572.08,2744.04,2930.98,350.68,327.24,28.49,0000 0000 0000 0000 000000
2014-04-26 01:57:21,0.05,2.33,0.00,16.83,24.24,25.96,6.27,29.88,1003.43,2050.00,2572.02,2744.01,2930.93,350.87,327.47,28.50,0000 0000 0000 0000 000000
2014-04-26 01:58:21,0.02,2.33,0.00,16.85,24.25,25.97,6.12,29.92,1003.40,2049.99,2571.99,2744.00,2930.83,349.26,326.01,28.50,0000 0000 0000 0000 000000
2014-04-26 01:59:21,0.01,2.33,0.00,16.86,24.25,26.02,6.14,29.75,1003.42,2049.99,2571.94,2744.00,2930.50,349.80,326.46,28.51,0000 0000 0000 0000 000000
2014-04-26 02:00:21,0.07,2.33,0.00,16.86,24.25,26.01,5.98,29.75,1003.42,2049.99,2571.78,2743.98,2930.25,350.06,326.59,28.52,0000 0000 0000 0000 000000
2014-04-26 02:01:22,0.06,2.33,0.00,16.88,24.25,25.97,6.13,29.79,1003.43,2049.99,2571.42,2743.98,2930.11,350.09,326.60,28.52,0000 0000 0000 0000 000000
2014-04-26 02:02:22,0.10,2.33,0.00,16.85,24.25,26.01,5.98,29.83,1003.43,2049.99,2571.17,2743.88,2930.04,349.37,325.95,28.53,0000 0000 0000 0000 000000
2014-04-26 02:03:22,0.10,2.33,0.00,16.83,24.25,26.04,6.07,29.75,1003.43,2049.99,2571.06,2743.55,2930.01,349.32,326.07,28.53,0000 0000 0000 0000 000000
2014-04-26 02:04:22,0.10,2.33,0.00,16.80,24.25,25.99,6.13,29.83,1003.43,2049.99,2571.02,2743.31,2930.00,350.18,326.77,28.54,0000 0000 0000 0000 000000
2014-04-26 02:05:23,0.06,2.33,0.00,16.83,24.25,26.02,6.01,29.92,1003.43,2049.99,2570.99,2743.17,2930.00,349.63,326.23,28.54,0000 0000 0000 0000 000000
2014-04-26 02:06:23,0.04,2.33,0.00,16.83,24.25,26.00,6.15,29.75,1003.43,2049.98,2570.86,2743.06,2929.99,350.56,327.08,28.55,0000 0000 0000 0000 000000
2014-04-26 02:07:23,0.05,2.33,0.00,16.81,24.25,26.02,6.22,29.63,1003.43,2049.99,2570.55,2743.02,2929.86,351.07,327.59,28.56,0000 0000 0000 0000 000000
2014-04-26 02:08:23,0.10,2.33,0.00,16.82,24.25,26.08,6.27,29.92,1003.43,2049.98,2570.24,2743.00,2929.59,350.66,327.32,28.56,0000 0000 0000 0000 000000
2014-04-26 02:09:23,0.09,2.33,0.00,16.85,24.25,26.00,6.06,29.75,1003.43,2049.99,2570.11,2743.00,2929.35,349.27,325.12,28.57,0000 0000 0000 0000 000000
2014-04-26 02:10:24,0.07,2.33,0.00,16.90,24.25,26.02,6.15,29.71,1003.44,2049.99,2570.04,2742.99,2929.14,350.39,326.86,28.57,0000 0000 0000 0000 000000
2014-04-26 02:11:24,0.05,2.33,0.00,16.90,24.25,26.05,6.10,29.71,1003.44,2049.99,2570.01,2742.96,2929.05,350.05,326.29,28.58,0000 0000 0000 0000 000000
2014-04-26 02:12:24,0.02,2.33,0.00,16.89,24.25,26.04,5.84,29.54,1003.43,2049.98,2570.00,2742.90,2929.01,348.91,326.22,28.59,0000 0000 0000 0000 000000
2014-04-26 02:13:25,0.02,2.33,0.00,16.91,24.26,26.04,6.04,29.67,1003.44,2049.99,2570.00,2742.86,2929.00,349.53,325.48,28.59,0000 0000 0000 0000 000000
2014-04-26 02:14:25,0.02,2.33,0.00,16.95,24.26,26.04,6.18,29.92,1003.44,2049.99,2569.96,2742.67,2929.00,350.15,326.30,28.60,0000 0000 0000 0000 000000
2014-04-26 02:15:25,0.08,2.33,0.00,16.94,24.27,26.02,6.12,29.88,1003.43,2049.99,2569.59,2742.30,2929.00,350.00,326.60,28.60,0000 0000 0000 0000 000000
2014-04-26 02:16:26,0.16,2.33,0.00,16.94,24.27,26.08,6.16,29.79,1003.44,2049.98,2569.28,2742.13,2928.97,350.21,326.38,28.61,0000 0000 0000 0000 000000
2014-04-26 02:17:26,0.09,2.33,0.00,16.96,24.27,26.08,6.12,29.79,1003.45,2049.96,2569.11,2742.05,2928.84,349.96,326.52,28.61,0000 0000 0000 0000 000000
2014-04-26 02:18:26,0.05,2.33,0.00,16.95,24.27,26.09,6.13,29.71,1003.45,2049.98,2569.03,2742.02,2928.60,350.46,326.62,28.62,0000 0000 0000 0000 000000
2014-04-26 02:19:27,0.07,2.33,0.00,16.90,24.27,26.03,6.15,29.79,1003.44,2049.99,2568.98,2742.00,2928.30,349.62,326.13,28.63,0000 0000 0000 0000 000000
2014-04-26 02:20:27,0.06,2.34,0.00,16.88,24.27,26.07,6.18,29.96,1003.43,2049.99,2568.97,2742.00,2928.16,350.30,326.79,28.63,0000 0000 0000 0000 000000
2014-04-26 02:21:27,0.02,2.34,0.00,16.89,24.27,26.04,6.30,29.83,1003.43,2049.98,2568.90,2741.99,2928.07,350.74,327.00,28.64,0000 0000 0000 0000 000000
2014-04-26 02:22:28,0.02,2.34,0.00,16.88,24.27,26.02,6.13,29.75,1003.44,2049.97,2568.78,2741.98,2928.02,350.62,327.10,28.64,0000 0000 0000 0000 000000
2014-04-26 02:23:28,0.03,2.34,0.00,16.89,24.27,26.05,6.15,29.92,1003.44,2049.98,2568.53,2741.95,2928.00,349.61,326.46,28.65,0000 0000 0000 0000 000000
2014-04-26 02:24:28,0.05,2.34,0.00,16.89,24.27,26.07,6.06,29.79,1003.47,2049.96,2568.22,2741.85,2928.00,350.18,326.93,28.66,0000 0000 0000 0000 000000
2014-04-26 02:25:29,0.07,2.34,0.00,16.88,24.27,26.05,6.09,30.08,1003.47,2049.97,2568.08,2741.54,2928.00,349.89,326.41,28.66,0000 0000 0000 0000 000000
2014-04-26 02:26:29,0.12,2.34,0.00,16.92,24.27,26.06,6.21,29.88,1003.44,2049.96,2568.03,2741.29,2927.99,350.19,326.28,28.67,0000 0000 0000 0000 000000
2014-04-26 02:27:29,0.08,2.34,0.00,16.94,24.27,26.12,6.22,29.88,1003.49,2049.97,2568.01,2741.15,2927.96,350.70,327.11,28.67,0000 0000 0000 0000 000000
2014-04-26 02:28:30,0.04,2.34,0.00,16.94,24.27,26.13,6.07,29.75,1003.51,2049.97,2568.00,2741.10,2927.94,349.44,326.09,28.68,0000 0000 0000 0000 000000
2014-04-26 02:29:30,0.01,2.34,0.00,16.97,24.28,26.15,6.12,29.75,1003.53,2049.98,2567.99,2741.04,2927.92,350.57,326.98,28.69,0000 0000 0000 0000 000000
2014-04-26 02:30:30,0.02,2.34,0.00,16.95,24.29,26.14,6.02,29.67,1003.62,2049.96,2567.97,2741.02,2927.67,350.34,326.81,28.69,0000 0000 0000 0000 000000
2014-04-26 02:31:30,0.04,2.34,0.00,16.96,24.29,26.14,6.11,29.79,1003.69,2049.96,2567.67,2741.00,2927.31,350.16,326.65,28.70,0000 0000 0000 0000 000000
2014-04-26 02:32:31,0.11,2.34,0.00,16.97,24.30,26.15,5.83,29.50,1003.74,2049.96,2567.26,2741.00,2927.11,348.86,325.58,28.70,0000 0000 0000 0000 000000
2014-04-26 02:33:31,0.10,2.34,0.00,16.97,24.30,26.19,6.00,29.67,1003.77,2049.97,2567.09,2740.99,2927.04,349.71,326.71,28.71,0000 0000 0000 0000 000000
2014-04-26 02:34:31,0.05,2.34,0.00,16.94,24.30,26.15,5.81,29.63,1003.85,2049.96,2567.04,2740.97,2927.01,349.97,326.05,28.71,0000 0000 0000 0000 000000
2014-04-26 02:35:32,0.01,2.34,0.00,16.94,24.30,26.17,6.02,29.75,1003.88,2049.98,2567.01,2740.92,2927.00,349.90,326.49,28.72,0000 0000 0000 0000 000000
2014-04-26 02:36:32,0.03,2.34,0.00,16.97,24.30,26.14,6.08,29.71,1003.88,2049.97,2567.00,2740.76,2926.99,349.67,326.25,28.73,0000 0000 0000 0000 000000